Estació meteorològica de Calldetenes (Osona, Plana de Vic)

Consulta les dades en temps real de l'estació meteorològica de Calldetenes





Hora UTC 11:15
Temperatura 17.7 ºC
Sòl 15 cm 19.2 ºC
Humitat 69.1 %
Pressió 1011.8 hPa
Pluja 0.1 mm
Velocitat vent 2.9 km/h
Direcció vent ESE
Radiació solar 548.1 W/m²

Webcam

Dades diàries 2026-05-05



Hora UTC (hivern +1h; estiu +2h)
Temperatura (ºC) Humitat (%) Pressió (hPa) Velocitat vent (km/h) Precipitació (mm) Radiació solar (W/m²)
Hora UTC Aire Sòl 15 cm Humitat Pressió Vel. Dir. Vel. Max Dir. Intent. màx 5 min. Rad. Sol.
00:05 8.9 8.7 99.5 1012.9 3.1 SE 3.1 ESE 0.0 0.1
00:10 8.6 8.4 99.0 1012.9 1.2 ESE 3.2 E 0.0 0.2
00:15 8.4 8.2 99.1 1012.9 5.0 E 8.5 ESE 0.0 0.1
00:20 8.4 8.0 99.6 1012.9 6.0 E 8.5 ESE 0.0 0.1
00:25 8.4 7.9 99.7 1012.9 4.9 E 6.4 E 0.0 0.1
00:30 8.5 8.0 100.0 1012.9 5.9 ESE 8.5 ESE 0.0 0.1
00:35 8.4 8.2 99.7 1012.8 5.1 ESE 7.8 ESE 0.0 0.1
00:40 7.6 7.9 98.5 1012.8 5.8 ESE 8.1 SE 0.0 0.1
00:45 7.4 7.5 99.2 1012.8 3.7 ESE 6.4 SE 0.0 0.1
00:50 7.6 7.3 99.9 1012.8 2.3 ESE 5.3 ESE 0.0 0.1
00:55 7.6 7.2 99.9 1012.7 5.8 E 7.8 E 0.0 0.1
01:00 7.7 7.3 100.0 1012.7 7.3 E 8.5 E 0.0 0.1
01:05 7.7 7.4 100.0 1012.6 6.4 E 7.8 ESE 0.0 0.2
01:10 7.7 7.4 100.0 1012.6 6.1 ESE 8.1 E 0.0 0.1
01:15 7.7 7.3 100.0 1012.6 5.6 E 7.8 ESE 0.0 0.2
01:20 7.8 7.4 100.0 1012.6 3.3 SE 6.0 SE 0.0 0.2
01:25 7.8 7.4 100.0 1012.6 1.9 SW 3.5 W 0.0 0.2
01:30 7.9 7.4 100.0 1012.6 0.8 SSW 5.3 S 0.0 0.2
01:35 8.2 7.5 100.0 1012.6 3.6 SW 5.3 S 0.0 0.1
01:40 8.4 7.7 100.0 1012.6 3.9 SSW 7.1 SW 0.0 0.1
01:45 8.4 7.9 100.0 1012.7 3.1 SSE 5.6 SSE 0.0 0.1
01:50 8.2 7.9 99.9 1012.7 1.1 SE 4.9 ESE 0.0 0.1
01:55 7.8 7.6 99.6 1012.7 1.4 SSE 3.9 SE 0.0 0.1
02:00 7.5 7.4 99.4 1012.7 0.6 ENE 2.5 NE 0.0 0.1
02:05 7.5 7.3 99.8 1012.7 3.0 E 4.9 ENE 0.0 0.1
02:10 7.3 7.1 99.6 1012.7 2.6 NE 4.6 ENE 0.0 0.1
02:15 7.4 7.1 99.9 1012.7 3.1 ENE 4.2 ENE 0.0 0.1
02:20 7.4 7.0 100.0 1012.7 3.8 ESE 6.4 ESE 0.0 0.1
02:25 7.2 7.1 99.8 1012.7 3.8 ESE 6.0 ESE 0.0 0.1
02:30 6.7 6.8 99.2 1012.7 4.7 ESE 6.7 ESE 0.0 0.1
02:35 6.3 6.4 99.3 1012.7 4.0 ESE 7.1 ESE 0.0 0.1
02:40 6.2 6.1 99.6 1012.7 3.6 SE 4.9 ESE 0.0 0.1
02:45 6.2 6.0 99.8 1012.7 3.8 ESE 5.3 ESE 0.0 0.1
02:50 6.0 5.8 99.8 1012.7 5.2 E 6.4 E 0.0 0.1
02:55 6.1 5.8 100.0 1012.7 1.4 E 4.9 E 0.0 0.1
03:00 6.3 5.8 100.0 1012.7 2.8 ENE 4.6 ESE 0.0 0.1
03:05 6.8 6.1 100.0 1012.7 3.2 ESE 5.6 ESE 0.0 0.1
03:10 6.4 6.2 100.0 1012.7 1.8 ENE 2.5 ENE 0.0 0.1
03:15 6.0 6.0 99.9 1012.6 1.0 NNE 2.5 ENE 0.0 0.1
03:20 6.5 5.9 100.0 1012.6 0.0 NNE 0.0 NW 0.0 0.1
03:25 6.4 6.0 100.0 1012.6 0.8 N 2.5 NNW 0.0 0.1
03:30 6.2 5.9 100.0 1012.6 0.5 S 3.9 SSE 0.0 0.1
03:35 6.9 6.0 100.0 1012.6 4.1 S 6.7 SSW 0.0 0.1
03:40 7.1 6.4 100.0 1012.6 2.9 SW 4.9 SW 0.0 0.1
03:45 7.1 6.7 100.0 1012.6 3.5 SW 4.9 WSW 0.0 0.1
03:50 7.2 6.9 100.0 1012.6 3.2 SSW 6.4 S 0.0 0.1
03:55 7.3 7.2 100.0 1012.5 4.3 S 7.1 S 0.0 0.1
04:00 7.2 7.3 100.0 1012.5 3.7 SSW 4.9 SSW 0.0 0.1
04:05 7.0 7.3 100.0 1012.5 3.9 SSW 6.0 SSW 0.0 0.1
04:10 7.0 7.2 100.0 1012.5 3.6 SSW 5.6 SSW 0.0 0.1
04:15 6.9 7.1 100.0 1012.5 3.4 S 4.6 SSW 0.0 0.1
04:20 6.9 7.1 100.0 1012.5 3.1 S 4.9 S 0.0 0.1
04:25 6.8 7.1 100.0 1012.5 1.3 S 3.2 SSE 0.0 0.2
04:30 6.4 6.8 100.0 1012.5 3.0 S 4.9 S 0.0 0.5
04:35 6.9 6.7 100.0 1012.5 4.4 S 7.4 SSW 0.1 1.2
04:40 7.1 6.9 100.0 1012.5 3.6 S 5.6 S 0.0 2.1
04:45 6.8 6.9 100.0 1012.6 3.5 S 5.3 S 0.0 3.6
04:50 6.6 6.7 100.0 1012.6 2.9 S 4.6 SSW 0.0 5.1
04:55 6.3 6.4 100.0 1012.6 1.8 S 4.9 SSE 0.0 6.6
05:00 6.3 6.2 100.0 1012.6 3.2 S 5.3 S 0.0 8.2
05:05 6.5 6.3 100.0 1012.6 2.2 S 4.6 S 0.0 9.5
05:10 6.5 6.4 100.0 1012.6 2.4 S 4.6 SSW 0.0 11.7
05:15 6.8 6.7 100.0 1012.7 2.8 S 4.6 S 0.0 14.0
05:20 6.9 6.9 100.0 1012.7 2.9 S 5.6 S 0.0 20.2
05:25 6.7 6.9 100.0 1012.8 1.0 S 3.2 S 0.0 25.0
05:30 6.4 6.7 100.0 1012.8 1.3 SSW 3.2 S 0.0 32.4
05:35 6.5 6.6 100.0 1012.8 1.7 SSE 3.9 SE 0.0 35.7
05:40 6.7 6.6 100.0 1012.8 1.8 S 3.5 SSW 0.0 50.8
05:45 6.9 6.8 100.0 1013.0 0.9 SSW 3.2 SSW 0.0 47.6
05:50 6.9 7.0 100.0 1013.0 0.0 NNE 0.0 NW 0.0 42.3
05:55 6.8 7.0 100.0 1013.0 2.3 ENE 3.5 ENE 0.0 37.3
06:00 6.8 7.0 100.0 1013.0 3.7 ESE 4.9 ESE 0.0 41.4
06:05 6.9 7.0 100.0 1013.0 2.5 ESE 5.6 ESE 0.0 58.6
06:10 7.1 7.1 100.0 1013.0 2.0 ESE 5.6 ESE 0.0 89.4
06:15 7.4 7.5 100.0 1013.0 0.2 W 1.1 W 0.0 103.7
06:20 7.8 8.0 100.0 1013.0 1.1 SSW 2.5 S 0.0 103.4
06:25 8.2 8.5 100.0 1013.1 2.2 WSW 5.3 WSW 0.0 103.6
06:30 8.5 8.9 100.0 1013.1 2.7 SW 4.6 WSW 0.0 106.8
06:35 8.7 9.2 100.0 1013.1 2.3 SSW 4.2 SW 0.0 111.2
06:40 9.0 9.5 100.0 1013.1 1.8 S 3.5 S 0.0 139.4
06:45 8.9 9.8 100.0 1013.1 2.5 S 4.2 S 0.0 154.7
06:50 8.9 10.0 100.0 1013.1 1.8 SSE 2.8 SSE 0.0 154.1
06:55 9.1 10.1 100.0 1013.2 0.7 S 2.5 SSE 0.0 159.8
07:00 9.0 10.2 100.0 1013.2 0.3 SSE 1.8 S 0.0 165.2
07:05 9.3 10.4 100.0 1013.2 0.2 S 2.1 SSW 0.0 187.2
07:10 9.6 10.7 100.0 1013.2 0.4 NE 2.1 ENE 0.0 196.8
07:15 9.8 10.9 100.0 1013.1 0.3 NE 2.5 NE 0.0 189.6
07:20 9.8 11.0 100.0 1013.1 0.5 SSE 2.8 SSE 0.0 208.3
07:25 10.0 11.1 100.0 1013.1 0.8 NE 3.5 NE 0.0 192.8
07:30 9.8 11.1 99.9 1013.1 2.5 NE 3.9 NE 0.0 205.0
07:35 9.9 11.0 99.5 1013.0 2.8 NE 4.9 NE 0.0 251.6
07:40 10.1 10.8 99.1 1013.0 4.8 NNE 9.2 NE 0.0 212.1
07:45 10.3 10.8 98.6 1012.8 3.7 NNW 6.7 N 0.0 277.5
07:50 10.5 11.3 97.3 1012.8 2.3 NNW 4.9 N 0.0 308.4
07:55 10.7 11.8 96.0 1012.8 1.2 WNW 3.2 NNW 0.0 246.0
08:00 10.9 12.0 94.1 1012.8 1.7 NE 3.5 NE 0.0 249.5
08:05 11.1 12.1 91.1 1012.9 4.4 E 7.4 ESE 0.0 290.2
08:10 11.2 12.1 88.1 1012.9 4.4 ESE 7.1 SE 0.0 344.9
08:15 11.7 12.4 88.7 1012.8 3.3 ESE 6.4 SSE 0.0 425.0
08:20 11.8 12.6 86.1 1012.8 4.4 ESE 7.4 SSE 0.0 310.0
08:25 11.7 12.7 85.9 1012.7 4.4 E 7.4 ENE 0.0 382.5
08:30 11.9 12.8 84.4 1012.7 2.6 ENE 6.4 ESE 0.0 510.1
08:35 12.0 12.9 84.0 1012.6 3.6 ESE 8.1 E 0.0 673.8
08:40 11.8 12.6 84.5 1012.6 1.9 ESE 6.0 E 0.0 670.5
08:45 12.0 12.3 85.7 1012.7 2.3 NNE 6.0 NNE 0.0 672.5
08:50 12.1 12.1 83.8 1012.7 0.5 W 2.1 W 0.0 632.0
08:55 12.3 12.1 82.5 1012.7 3.3 ESE 5.6 ESE 0.0 530.9
09:00 12.4 12.0 83.9 1012.7 3.5 NNE 7.4 N 0.0 661.3
09:05 12.7 12.1 85.1 1012.5 5.1 NNE 10.9 E 0.0 772.9
09:10 13.0 12.4 82.1 1012.5 2.6 N 5.3 NNE 0.0 483.6
09:15 13.1 12.8 81.2 1012.5 3.1 N 6.0 NNE 0.0 257.4
09:20 13.1 13.2 80.8 1012.5 0.9 NW 2.8 NNE 0.0 191.5
09:25 13.2 13.5 79.7 1012.6 1.3 NNE 2.8 NE 0.0 196.5
09:30 13.3 13.7 79.1 1012.6 1.0 NW 3.2 NW 0.0 216.1
09:35 13.6 13.9 78.5 1012.7 1.1 NW 4.6 S 0.0 305.6
09:40 14.2 14.5 78.6 1012.7 3.0 NW 7.1 NW 0.0 846.0
09:45 14.8 15.6 75.9 1012.6 3.9 NNE 7.1 NNE 0.0 427.9
09:50 14.5 16.1 77.2 1012.6 3.7 NNW 6.7 NNW 0.0 391.4
09:55 14.3 16.1 76.7 1012.3 2.9 NNE 4.9 N 0.0 276.4
10:00 14.3 15.9 77.3 1012.3 1.6 NW 6.4 NW 0.0 268.5
10:05 14.5 15.9 78.3 1012.2 5.6 NW 8.8 NW 0.0 371.0
10:10 14.8 16.2 77.0 1012.2 2.9 NW 7.1 WNW 0.0 726.8
10:15 15.2 17.1 74.5 1012.3 2.6 NW 8.1 N 0.0 888.0
10:20 15.5 17.8 75.2 1012.3 5.2 NNE 9.5 N 0.0 812.0
10:25 15.4 17.9 76.4 1012.1 3.0 NE 6.4 NE 0.0 775.1
10:30 15.8 18.1 74.4 1012.1 2.4 NNW 7.4 NNW 0.0 899.0
10:35 16.8 18.7 74.3 1012.1 3.5 NNW 9.2 NNW 0.0 889.0
10:40 17.3 19.4 71.5 1012.1 2.6 NNW 7.1 N 0.0 945.0
10:45 18.0 20.1 67.9 1012.0 2.8 N 6.4 N 0.0 784.2
10:50 18.0 20.6 67.7 1012.0 1.8 NNE 6.4 W 0.0 806.0
10:55 18.2 20.9 65.8 1011.8 6.2 NNW 10.2 N 0.0 377.2
11:00 17.1 20.1 69.5 1011.8 3.0 NE 6.4 NNE 0.0 310.1
11:05 16.9 19.1 69.5 1011.8 1.8 S 4.9 SSE 0.0 334.4
11:10 17.2 18.8 69.3 1011.8 2.3 E 5.3 SSE 0.0 396.2
11:15 17.7 19.2 69.1 1011.8 2.9 ESE 8.1 ESE 0.0 548.1
Màxima 18.2 20.9 100.0 1013.2 7.3 E 10.9 E 0.1 945.0
Mínima 6.0 5.8 65.8 1011.8
Total 0.1